Previsão horária em Abolene

Hoje, 16 Maio, Domingo

Tempo Temperatura Precipitação Vento Pressão Humidade
00:00 +12°C° 0 mm 2 m/s 749 mmHg 96%
01:00 +12°C° 0 mm 2 m/s 749 mmHg 96%
02:00 +10°C° 0 mm 2 m/s 749 mmHg 96%
03:00 +10°C° 0 mm 2 m/s 750 mmHg 96%
04:00 +10°C° 0 mm 2 m/s 750 mmHg 95%
05:00 +10°C° 0 mm 2 m/s 750 mmHg 95%
06:00 +12°C° 0 mm 2 m/s 750 mmHg 89%
07:00 +13°C° 0 mm 2 m/s 751 mmHg 84%
08:00 +14°C° 0 mm 3 m/s 751 mmHg 80%
09:00 +16°C° 0 mm 2 m/s 751 mmHg 70%
10:00 +18°C° 0 mm 2 m/s 752 mmHg 60%
11:00 +19°C° 0 mm 2 m/s 752 mmHg 51%
12:00 +21°C° 0 mm 1 m/s 752 mmHg 49%
13:00 +22°C° 0 mm 1 m/s 752 mmHg 47%
14:00 +23°C° 0 mm 1 m/s 752 mmHg 44%
15:00 +22°C° 0 mm 1 m/s 752 mmHg 47%
16:00 +22°C° 0 mm 1 m/s 752 mmHg 50%
17:00 +22°C° 0 mm 1 m/s 752 mmHg 53%
18:00 +20°C° 0 mm 1 m/s 752 mmHg 59%
19:00 +18°C° 0 mm 2 m/s 752 mmHg 65%
20:00 +17°C° 0 mm 2 m/s 752 mmHg 70%
21:00 +15°C° 0 mm 2 m/s 752 mmHg 76%
22:00 +14°C° 0 mm 2 m/s 752 mmHg 82%
23:00 +13°C° 0 mm 2 m/s 752 mmHg 88%

Amanhã, 17 Maio, Segunda-feira

Tempo Temperatura Precipitação Vento Pressão Humidade
00:00 +13°C° 0 mm 2 m/s 752 mmHg 90%
01:00 +12°C° 0 mm 2 m/s 752 mmHg 92%
02:00 +12°C° 0 mm 2 m/s 752 mmHg 94%
03:00 +11°C° 0 mm 3 m/s 752 mmHg 92%
04:00 +12°C° 0 mm 3 m/s 752 mmHg 91%
05:00 +12°C° 0 mm 3 m/s 752 mmHg 90%
06:00 +14°C° 0 mm 4 m/s 752 mmHg 83%
07:00 +17°C° 0 mm 4 m/s 752 mmHg 77%
08:00 +18°C° 0 mm 4 m/s 752 mmHg 71%
09:00 +20°C° 0 mm 5 m/s 751 mmHg 67%
10:00 +21°C° 0 mm 5 m/s 751 mmHg 62%
11:00 +22°C° 0 mm 5 m/s 751 mmHg 58%
12:00 +21°C° 0.4 mm 5 m/s 751 mmHg 62%
13:00 +21°C° 0.4 mm 4 m/s 751 mmHg 67%
14:00 +21°C° 0.4 mm 4 m/s 751 mmHg 71%
15:00 +20°C° 0.5 mm 3 m/s 751 mmHg 76%
16:00 +19°C° 0.5 mm 3 m/s 751 mmHg 81%
17:00 +18°C° 0.5 mm 2 m/s 751 mmHg 87%
18:00 +17°C° 0.2 mm 2 m/s 751 mmHg 89%
19:00 +16°C° 0.2 mm 2 m/s 750 mmHg 91%
20:00 +16°C° 0.2 mm 2 m/s 750 mmHg 93%
21:00 +16°C° 0.7 mm 3 m/s 749 mmHg 94%
22:00 +14°C° 0.7 mm 3 m/s 749 mmHg 95%
23:00 +14°C° 0.7 mm 4 m/s 748 mmHg 95%

Depois de amanhã, 18 Maio, Terça-feira

Tempo Temperatura Precipitação Vento Pressão Humidade
00:00 +14°C° 0.8 mm 4 m/s 747 mmHg 96%
01:00 +14°C° 0.8 mm 4 m/s 747 mmHg 97%
02:00 +14°C° 0.8 mm 3 m/s 746 mmHg 98%
03:00 +15°C° 0.6 mm 4 m/s 746 mmHg 98%
04:00 +15°C° 0.6 mm 4 m/s 745 mmHg 98%
05:00 +15°C° 0.6 mm 4 m/s 744 mmHg 98%
06:00 +17°C° 1.1 mm 4 m/s 744 mmHg 96%
07:00 +18°C° 1.1 mm 4 m/s 744 mmHg 95%
08:00 +18°C° 1.1 mm 4 m/s 744 mmHg 94%
09:00 +17°C° 0.3 mm 5 m/s 744 mmHg 93%
10:00 +17°C° 0.3 mm 5 m/s 744 mmHg 91%
11:00 +17°C° 0.3 mm 6 m/s 744 mmHg 90%
12:00 +19°C° 0.2 mm 6 m/s 744 mmHg 85%
13:00 +20°C° 0.2 mm 7 m/s 744 mmHg 79%
14:00 +20°C° 0.2 mm 7 m/s 744 mmHg 74%
15:00 +18°C° 0.1 mm 7 m/s 744 mmHg 76%
16:00 +19°C° 0.1 mm 6 m/s 745 mmHg 78%
17:00 +17°C° 0.1 mm 6 m/s 745 mmHg 80%
18:00 +16°C° 0 mm 6 m/s 745 mmHg 83%
19:00 +15°C° 0 mm 5 m/s 746 mmHg 85%
20:00 +15°C° 0 mm 4 m/s 746 mmHg 87%
21:00 +14°C° 0 mm 4 m/s 747 mmHg 88%
22:00 +13°C° 0 mm 3 m/s 747 mmHg 90%
23:00 +13°C° 0 mm 2 m/s 748 mmHg 91%

19 Maio, Quarta-feira

Tempo Temperatura Precipitação Vento Pressão Humidade
00:00 +13°C° 0 mm 2 m/s 748 mmHg 92%
01:00 +13°C° 0 mm 2 m/s 748 mmHg 92%
02:00 +12°C° 0 mm 2 m/s 748 mmHg 92%
03:00 +12°C° 0 mm 2 m/s 748 mmHg 93%
04:00 +12°C° 0 mm 2 m/s 748 mmHg 93%
05:00 +10°C° 0 mm 2 m/s 748 mmHg 94%
06:00 +13°C° 0 mm 3 m/s 748 mmHg 87%
07:00 +13°C° 0 mm 3 m/s 748 mmHg 84%
08:00 +14°C° 0 mm 2 m/s 748 mmHg 81%
09:00 +13°C° 0.7 mm 3 m/s 748 mmHg 86%
10:00 +13°C° 0.7 mm 3 m/s 748 mmHg 88%
11:00 +13°C° 0.7 mm 3 m/s 748 mmHg 89%
12:00 +14°C° 0.5 mm 3 m/s 748 mmHg 84%
13:00 +13°C° 0.5 mm 3 m/s 747 mmHg 87%
14:00 +13°C° 0.5 mm 4 m/s 747 mmHg 90%
15:00 +14°C° 0.1 mm 2 m/s 748 mmHg 85%
16:00 +14°C° 0.1 mm 2 m/s 748 mmHg 89%
17:00 +13°C° 0.1 mm 2 m/s 748 mmHg 93%
18:00 +13°C° 0.1 mm 2 m/s 748 mmHg 94%
19:00 +13°C° 0.1 mm 2 m/s 748 mmHg 95%
20:00 +13°C° 0.1 mm 2 m/s 748 mmHg 95%
21:00 +13°C° 0 mm 2 m/s 748 mmHg 95%
22:00 +12°C° 0 mm 3 m/s 747 mmHg 95%
23:00 +12°C° 0 mm 3 m/s 747 mmHg 95%

20 Maio, Quinta-feira

Tempo Temperatura Precipitação Vento Pressão Humidade
00:00 +12°C° 0.1 mm 2 m/s 747 mmHg 96%
01:00 +12°C° 0.1 mm 2 m/s 747 mmHg 96%
02:00 +12°C° 0.1 mm 2 m/s 747 mmHg 96%
03:00 +12°C° 1.8 mm 2 m/s 747 mmHg 97%
04:00 +12°C° 1.8 mm 2 m/s 746 mmHg 98%
05:00 +12°C° 1.8 mm 2 m/s 746 mmHg 98%
06:00 +12°C° 1.9 mm 2 m/s 746 mmHg 98%
07:00 +12°C° 1.9 mm 2 m/s 745 mmHg 98%
08:00 +12°C° 1.9 mm 2 m/s 745 mmHg 98%
09:00 +12°C° 0.4 mm 2 m/s 745 mmHg 97%
10:00 +12°C° 0.4 mm 3 m/s 745 mmHg 96%
11:00 +12°C° 0.4 mm 3 m/s 745 mmHg 95%
12:00 +11°C° 0.3 mm 3 m/s 746 mmHg 95%
13:00 +11°C° 0.3 mm 4 m/s 746 mmHg 95%
14:00 +10°C° 0.3 mm 4 m/s 746 mmHg 95%
15:00 +9°C° 0.6 mm 5 m/s 747 mmHg 95%
16:00 +9°C° 0.6 mm 5 m/s 747 mmHg 95%
17:00 +9°C° 0.6 mm 5 m/s 747 mmHg 95%
18:00 +9°C° 0.2 mm 5 m/s 748 mmHg 94%
19:00 +9°C° 0.2 mm 5 m/s 749 mmHg 93%
20:00 +10°C° 0.2 mm 4 m/s 749 mmHg 93%
21:00 +10°C° 0 mm 4 m/s 750 mmHg 94%
22:00 +8°C° 0 mm 4 m/s 750 mmHg 95%
23:00 +8°C° 0 mm 4 m/s 750 mmHg 96%

21 Maio, Sexta-feira

Tempo Temperatura Precipitação Vento Pressão Humidade
00:00 +8°C° 0 mm 3 m/s 751 mmHg 95%
01:00 +7°C° 0 mm 3 m/s 751 mmHg 94%
02:00 +5°C° 0 mm 3 m/s 751 mmHg 93%
03:00 +5°C° 0 mm 3 m/s 752 mmHg 93%
04:00 +6°C° 0 mm 2 m/s 752 mmHg 93%
05:00 +6°C° 0 mm 2 m/s 752 mmHg 92%
06:00 +8°C° 0 mm 2 m/s 752 mmHg 86%
07:00 +10°C° 0 mm 2 m/s 752 mmHg 79%
08:00 +11°C° 0 mm 3 m/s 752 mmHg 72%
09:00 +12°C° 0 mm 3 m/s 752 mmHg 66%
10:00 +13°C° 0 mm 3 m/s 752 mmHg 61%
11:00 +14°C° 0 mm 3 m/s 752 mmHg 56%
12:00 +14°C° 0 mm 3 m/s 752 mmHg 59%
13:00 +13°C° 0 mm 3 m/s 752 mmHg 63%
14:00 +13°C° 0 mm 3 m/s 752 mmHg 66%
15:00 +13°C° 0.2 mm 2 m/s 752 mmHg 70%
16:00 +13°C° 0.2 mm 2 m/s 752 mmHg 75%
17:00 +12°C° 0.2 mm 2 m/s 751 mmHg 79%
18:00 +12°C° 0.1 mm 2 m/s 751 mmHg 82%
19:00 +10°C° 0.1 mm 2 m/s 751 mmHg 85%
20:00 +10°C° 0.1 mm 2 m/s 751 mmHg 88%
21:00 +9°C° 0 mm 3 m/s 751 mmHg 89%
22:00 +8°C° 0 mm 3 m/s 752 mmHg 91%
23:00 +8°C° 0 mm 3 m/s 752 mmHg 92%
Mostrar mais

Necessitamos do seu Consentimento

A Meteoprog e os seus Fornecedores de Serviços podem armazenar e aceder a dados pessoais como cookies, identificadores do dispositivo ou outras tecnologias semelhantes existentes no seu dispositivo e processar estes dados para personalizar conteúdos e anúncios, assim como funcionalidades nas redes sociais e análise de tráfego.

  • Armazenar e/ou aceder a informações no seu dispositivo

    Os cookies, identificadores do dispositivo ou outras informações podem ser armazenados ou acedidos no seu dispositivo, para os fins acima indicados.

  • Anúncios e conteúdos personalizados, medição de anúncios e conteúdos, dados sobre o público-alvo e desenvolvimento de produtos

    Os anúncios e os conteúdos podem ser personalizados com base num perfil. Podem ser adicionados dados adicionais para uma maior personalização dos anúncios e dos conteúdos. A eficácia dos anúncios e dos conteúdos pode ser medida. Podem ser obtidas informações sobre o público que visualizou os anúncios e os conteúdos. Estes dados podem ser usados para desenvolver ou melhorar sistemas, softwares ou a experiência do utilizador.

Ao clicar em "Eu concordo”, permitirá o uso de cookies, identificadores do dispositivo e web beacons mencionados ou outras tecnologias semelhantes. As configurações do navegador do seu dispositivo podem ser alteradas.

Para certos fins, podem ser invocados interesses legítimos ao invés de consentimento. Pode ler mais informação sobre este assunto na nossa Política de Privacidade e Cookies.